Flag for Germany Weather past 2 weeks in Baden-Baden, Baden-Württemberg, Germany

45 °F

Partly sunny.

Feels Like: 35 °F
Forecast: 51 / 53 °F
Wind: 25 mph from South

Location: Karlsruhe - Baden Wurttemberg

Current Time: Nov 29, 2015 at 12:01:59 PM

Latest Report: Nov 29, 2015 at 11:20 AM

Visibility: N/A

Pressure: 30.09 "Hg

Humidity: 76%

Dew point: 37 °F

Location of Baden-BadenLocation

Historic Weather in Baden-Baden — Graph


Baden-Baden temperature yesterday

Maximum temperature yesterday: 43 °F (at 1:50 PM)
Minimum temperature yesterday: 32 °F (at 12:20 AM)
Average temperature yesterday: 38 °F

Past Weeks' High & Low Weather Summary

High63 °F (Nov 18, 5:20 AM)100% (Nov 20, 8:20 AM)30.48 "Hg (Nov 20, 8:20 AM)
Low23 °F (Nov 24, 6:20 AM)44% (Nov 14, 1:50 PM)29.42 "Hg (Nov 21, 11:50 AM)
Average45 °F79%30.00 "Hg
* Reported Nov 14 10:20 AM — Nov 29 10:50 AM, Baden-Baden, Weather by CustomWeather, © 2015

Note: Actual official high and low records may vary slightly from our data, if they occured in-between our weather recording intervals... More about our weather records


Baden-Baden weather history for previous 24 hours

Time TempWeatherWind HumidityBarometerVisibility
10:50 AM
Sun, Nov 29
45 °FLight rain. Partly sunny.25 mph76%30.09 "HgN/A
10:20 AM43 °FLight rain. Partly sunny.26 mph81%30.09 "HgN/A
9:50 AM43 °FLight rain. Partly sunny.24 mph81%30.09 "HgN/A
9:20 AM43 °FLight rain. Partly sunny.26 mph81%30.09 "HgN/A
8:50 AM43 °FLight rain. Partly sunny.24 mph81%30.09 "HgN/A
8:20 AM41 °FLight rain. Partly sunny.23 mph87%30.07 "HgN/A
7:50 AM41 °FLight rain. Passing clouds.24 mph87%30.07 "HgN/A
7:20 AM41 °FRain. Passing clouds.26 mph81%30.07 "HgN/A
6:50 AM41 °FRain. Passing clouds.25 mph81%30.07 "HgN/A
5:50 AM41 °FRain. Passing clouds.25 mph76%30.07 "Hg6 mi
5:20 AM41 °FLight rain. Passing clouds.28 mph76%30.07 "HgN/A
4:53 AM43 °FLight rain. Passing clouds.29 mph71%30.07 "Hg6 mi
4:20 AM43 °FPassing clouds.26 mph66%30.09 "HgN/A
3:50 AM43 °FPassing clouds.28 mph66%30.09 "HgN/A
3:20 AM43 °FPassing clouds.25 mph66%30.09 "HgN/A
2:50 AM43 °FPassing clouds.24 mph66%30.09 "HgN/A
12:50 AM41 °FClear.20 mph70%30.12 "Hg10 mi
12:20 AM39 °FClear.20 mph75%30.12 "Hg10 mi
11:20 PM
Sat, Nov 28
39 °FClear.17 mph81%30.15 "Hg10 mi
10:50 PM39 °FPartly cloudy.18 mph81%30.15 "HgN/A
10:20 PM39 °FPassing clouds.18 mph81%30.18 "HgN/A
9:50 PM39 °FClear.18 mph81%30.18 "Hg10 mi
9:20 PM39 °FClear.17 mph81%30.18 "Hg10 mi
8:50 PM39 °FClear.17 mph75%30.18 "Hg10 mi
8:20 PM39 °FClear.16 mph75%30.18 "Hg10 mi
7:50 PM39 °FClear.12 mph75%30.15 "Hg10 mi
7:20 PM37 °FPassing clouds.12 mph81%30.15 "HgN/A
6:50 PM39 °FPassing clouds.14 mph75%30.15 "HgN/A
6:20 PM39 °FPassing clouds.10 mph75%30.15 "HgN/A
5:50 PM39 °FPassing clouds.9 mph75%30.15 "HgN/A
5:20 PM37 °FPassing clouds.9 mph81%30.15 "HgN/A
4:50 PM39 °FPassing clouds.10 mph75%30.12 "HgN/A
4:20 PM41 °FScattered clouds.9 mph76%30.12 "HgN/A
3:50 PM43 °FScattered clouds.12 mph76%30.12 "HgN/A
3:20 PM43 °FScattered clouds.9 mph76%30.09 "HgN/A
2:50 PM43 °FPartly sunny.9 mph76%30.09 "HgN/A
2:20 PM43 °FPartly sunny.10 mph76%30.09 "HgN/A
1:50 PM43 °FPartly sunny.12 mph81%30.07 "HgN/A
1:20 PM41 °FPartly sunny.9 mph93%30.07 "HgN/A
12:50 PM39 °FPartly sunny.8 mph93%30.07 "HgN/A
12:20 PM39 °FPartly sunny.9 mph93%30.07 "Hg5 mi
Weather by CustomWeather, © 2015

See weather overviewHow to use our weather pages